| time (UTC) | temp F | wind direction | speed knots | gust knots | rain 1hr in | rain 24hr in | rain mn in | humidity % | barometer mb |
| 20260506195233 | 52 | 42 | 4.3 | 10.4 | 0.00 | 0.04 | 0.01 | 75 | 1012.2 |
| 20260506194301 | 53 | 44 | 3.5 | 8.7 | 0.00 | 0.04 | 0.01 | 76 | 1012.1 |
| 20260506193306 | 52 | 21 | 6.1 | 13.9 | 0.00 | 0.04 | 0.01 | 76 | 1012.0 |
| 20260506192314 | 52 | 40 | 2.6 | 7.8 | 0.00 | 0.04 | 0.01 | 77 | 1011.9 |
| 20260506191243 | 52 | 42 | 3.5 | 5.2 | 0.00 | 0.04 | 0.01 | 77 | 1011.8 |
| 20260506190243 | 53 | 30 | 2.6 | 7.8 | 0.00 | 0.04 | 0.01 | 76 | 1011.6 |
| 20260506185239 | 53 | 36 | 3.5 | 9.6 | 0.00 | 0.04 | 0.01 | 75 | 1011.4 |
| 20260506184250 | 53 | 37 | 2.6 | 7.8 | 0.00 | 0.04 | 0.01 | 75 | 1011.3 |
| 20260506183225 | 53 | 53 | 3.5 | 8.7 | 0.00 | 0.04 | 0.01 | 74 | 1011.3 |
| 20260506182300 | 54 | 19 | 2.6 | 11.3 | 0.00 | 0.04 | 0.01 | 73 | 1011.1 |
| 20260506181243 | 54 | 15 | 2.6 | 8.7 | 0.00 | 0.04 | 0.01 | 72 | 1010.9 |
| 20260506180244 | 55 | 38 | 1.7 | 6.1 | 0.00 | 0.04 | 0.01 | 71 | 1010.9 |
| 20260506175246 | 55 | 79 | 1.7 | 6.1 | 0.00 | 0.04 | 0.01 | 70 | 1010.7 |
| 20260506174256 | 55 | 44 | 1.7 | 9.6 | 0.00 | 0.04 | 0.01 | 70 | 1010.6 |
| 20260506173235 | 56 | 87 | 3.5 | 8.7 | 0.00 | 0.04 | 0.01 | 68 | 1010.4 |
| 20260506172247 | 56 | 360 | 3.5 | 8.7 | 0.00 | 0.04 | 0.01 | 68 | 1010.3 |
| 20260506171240 | 56 | 20 | 3.5 | 9.6 | 0.00 | 0.04 | 0.01 | 68 | 1010.2 |
| 20260506170242 | 57 | 33 | 2.6 | 9.6 | 0.00 | 0.04 | 0.01 | 68 | 1010.1 |
| 20260506165238 | 57 | 27 | 3.5 | 11.3 | 0.00 | 0.04 | 0.01 | 67 | 1010.0 |
| 20260506164238 | 58 | 27 | 7.0 | 12.2 | 0.00 | 0.04 | 0.01 | 67 | 1009.9 |
| 20260506163249 | 59 | 35 | 3.5 | 10.4 | 0.00 | 0.04 | 0.01 | 66 | 1009.8 |
| 20260506162306 | 59 | 19 | 5.2 | 10.4 | 0.00 | 0.04 | 0.01 | 66 | 1009.7 |
| 20260506161250 | 59 | 9 | 3.5 | 9.6 | 0.00 | 0.04 | 0.01 | 67 | 1009.6 |
| 20260506160232 | 59 | 360 | 5.2 | 10.4 | 0.00 | 0.04 | 0.01 | 65 | 1009.7 |
| 20260506155230 | 59 | 360 | 6.1 | 9.6 | 0.00 | 0.04 | 0.01 | 65 | 1009.6 |
| 20260506154231 | 60 | 5 | 5.2 | 8.7 | 0.00 | 0.04 | 0.01 | 63 | 1009.6 |
| 20260506153240 | 60 | 24 | 4.3 | 9.6 | 0.00 | 0.04 | 0.01 | 63 | 1009.5 |
| 20260506152251 | 59 | 355 | 4.3 | 9.6 | 0.00 | 0.04 | 0.01 | 63 | 1009.6 |
| 20260506151234 | 59 | 350 | 4.3 | 8.7 | 0.00 | 0.04 | 0.01 | 64 | 1009.5 |
| 20260506150240 | 59 | 15 | 5.2 | 9.6 | 0.00 | 0.04 | 0.01 | 66 | 1009.5 |
| 20260506145234 | 59 | 350 | 4.3 | 9.6 | 0.00 | 0.04 | 0.01 | 68 | 1009.6 |
| 20260506144235 | 59 | 339 | 5.2 | 9.6 | 0.00 | 0.04 | 0.01 | 69 | 1009.4 |
| 20260506143246 | 59 | 323 | 6.1 | 10.4 | 0.00 | 0.04 | 0.01 | 67 | 1009.4 |
| 20260506142259 | 59 | 355 | 5.2 | 11.3 | 0.00 | 0.04 | 0.01 | 67 | 1009.5 |
| 20260506141241 | 59 | 290 | 6.1 | 12.2 | 0.00 | 0.04 | 0.01 | 66 | 1009.4 |
| 20260506140251 | 60 | 346 | 6.1 | 10.4 | 0.00 | 0.04 | 0.01 | 67 | 1009.5 |
| 20260506135231 | 61 | 342 | 5.2 | 10.4 | 0.00 | 0.04 | 0.01 | 65 | 1009.6 |
| 20260506134227 | 60 | 316 | 5.2 | 8.7 | 0.00 | 0.04 | 0.01 | 66 | 1009.4 |
| 20260506133228 | 60 | 321 | 7.0 | 10.4 | 0.00 | 0.04 | 0.01 | 64 | 1009.4 |
| 20260506132250 | 61 | 348 | 7.0 | 11.3 | 0.00 | 0.04 | 0.01 | 65 | 1009.3 |
| 20260506131233 | 59 | 338 | 5.2 | 10.4 | 0.00 | 0.04 | 0.01 | 69 | 1009.2 |
| 20260506130306 | 57 | 355 | 3.5 | 11.3 | 0.00 | 0.04 | 0.01 | 70 | 1009.2 |
| 20260506125241 | 57 | 328 | 4.3 | 10.4 | 0.00 | 0.04 | 0.01 | 72 | 1009.2 |
| 20260506124240 | 58 | 31 | 5.2 | 9.6 | 0.00 | 0.04 | 0.01 | 72 | 1009.1 |
| 20260506123249 | 59 | 5 | 5.2 | 11.3 | 0.00 | 0.04 | 0.01 | 72 | 1009.2 |
| 20260506122300 | 60 | 355 | 7.0 | 11.3 | 0.00 | 0.04 | 0.01 | 71 | 1009.1 |
| 20260506121254 | 61 | 343 | 3.5 | 9.6 | 0.00 | 0.04 | 0.01 | 72 | 1009.1 |
| 20260506120251 | 60 | 330 | 3.5 | 12.2 | 0.00 | 0.04 | 0.01 | 73 | 1009.1 |
| 20260506115234 | 58 | 29 | 4.3 | 7.8 | 0.00 | 0.04 | 0.01 | 76 | 1009.1 |
| 20260506114250 | 58 | 40 | 2.6 | 7.8 | 0.00 | 0.04 | 0.01 | 75 | 1009.1 |
| 20260506113238 | 59 | 40 | 2.6 | 8.7 | 0.00 | 0.04 | 0.01 | 78 | 1009.1 |
| 20260506112249 | 56 | 5 | 4.3 | 9.6 | 0.00 | 0.04 | 0.01 | 80 | 1009.1 |
| 20260506111300 | 56 | 22 | 3.5 | 6.1 | 0.00 | 0.04 | 0.01 | 82 | 1009.2 |
| 20260506110239 | 56 | 332 | 2.6 | 7.8 | 0.00 | 0.04 | 0.01 | 81 | 1009.2 |
| 20260506105239 | 57 | 355 | 3.5 | 8.7 | 0.00 | 0.04 | 0.01 | 80 | 1009.1 |
| 20260506104249 | 57 | 344 | 3.5 | 9.6 | 0.00 | 0.04 | 0.01 | 79 | 1009.2 |
| 20260506103229 | 58 | 31 | 3.5 | 7.8 | 0.00 | 0.04 | 0.01 | 82 | 1009.1 |
| 20260506102247 | 56 | 306 | 6.1 | 11.3 | 0.00 | 0.04 | 0.01 | 86 | 1009.1 |
| 20260506101227 | 55 | 338 | 4.3 | 7.8 | 0.00 | 0.04 | 0.01 | 89 | 1009.2 |
| 20260506100258 | 55 | 313 | 3.5 | 5.2 | 0.00 | 0.04 | 0.01 | 91 | 1009.2 |
| 20260506095230 | 54 | 355 | 5.2 | 7.8 | 0.00 | 0.04 | 0.01 | 93 | 1009.2 |
| 20260506094245 | 54 | 328 | 3.5 | 7.0 | 0.00 | 0.04 | 0.01 | 95 | 1009.1 |
| 20260506093247 | 53 | 244 | 2.6 | 7.0 | 0.00 | 0.04 | 0.01 | 95 | 1009.1 |
| 20260506092254 | 53 | 300 | 2.6 | 5.2 | 0.00 | 0.04 | 0.01 | 96 | 1009.1 |
| 20260506091246 | 52 | 329 | 3.5 | 7.0 | 0.00 | 0.04 | 0.01 | 96 | 1009.1 |
| 20260506090226 | 52 | 317 | 2.6 | 8.7 | 0.00 | 0.04 | 0.01 | 97 | 1009.0 |
| 20260506085226 | 52 | 328 | 3.5 | 7.0 | 0.00 | 0.04 | 0.01 | 97 | 1009.1 |
| 20260506084228 | 51 | 28 | 3.5 | 8.7 | 0.00 | 0.04 | 0.01 | 97 | 1009.0 |
| 20260506083235 | 51 | 346 | 4.3 | 7.8 | 0.00 | 0.04 | 0.01 | 97 | 1009.0 |
| 20260506082249 | 51 | 12 | 1.7 | 4.3 | 0.04 | 0.04 | 0.01 | 97 | 1009.0 |
| 20260506081232 | 51 | 313 | 2.6 | 7.0 | 0.04 | 0.04 | 0.01 | 97 | 1008.9 |
| 20260506080241 | 50 | 338 | 2.6 | 7.0 | 0.04 | 0.04 | 0.01 | 97 | 1008.9 |
| 20260506073241 | 50 | 305 | 2.6 | 7.8 | 0.04 | 0.04 | 0.01 | 96 | 1008.8 |
| 20260506072252 | 50 | 317 | 3.5 | 7.8 | 0.00 | 0.00 | 0.00 | 96 | 1008.8 |
| 20260506071305 | 49 | 9 | 2.6 | 7.8 | 0.00 | 0.00 | 0.00 | 96 | 1008.7 |
| 20260506070253 | 49 | 351 | 3.5 | 7.8 | 0.00 | 0.00 | 0.00 | 96 | 1008.8 |
| 20260506062255 | 49 | 15 | 5.2 | 7.8 | 0.00 | 0.00 | 0.00 | 94 | 1008.6 |
| 20260506061245 | 49 | 310 | 6.1 | 9.6 | 0.00 | 0.00 | 0.00 | 94 | 1008.4 |
| 20260506060246 | 49 | 61 | 3.5 | 7.8 | 0.00 | 0.00 | 0.00 | 93 | 1008.4 |
| 20260506051230 | 50 | 19 | 3.5 | 9.6 | 0.00 | 0.00 | 0.00 | 90 | 1008.2 |
| 20260506050240 | 50 | 344 | 4.3 | 8.7 | 0.00 | 0.00 | 0.00 | 90 | 1008.3 |
| 20260506044235 | 50 | 332 | 3.5 | 8.7 | 0.00 | 0.00 | 0.00 | 89 | 1008.1 |
| 20260506043245 | 50 | 345 | 4.3 | 11.3 | 0.00 | 0.00 | 0.00 | 89 | 1008.2 |
| 20260506042257 | 50 | 321 | 3.5 | 8.7 | 0.00 | 0.00 | 0.00 | 89 | 1008.1 |
| 20260506041249 | 50 | 9 | 6.1 | 9.6 | 0.00 | 0.00 | 0.00 | 88 | 1008.1 |
| 20260506040230 | 50 | 343 | 6.1 | 10.4 | 0.00 | 0.00 | 0.00 | 88 | 1008.2 |
| 20260506035226 | 50 | 22 | 2.6 | 7.0 | 0.00 | 0.04 | 0.00 | 88 | 1008.2 |
| 20260506034255 | 50 | 32 | 4.3 | 7.8 | 0.00 | 0.04 | 0.00 | 88 | 1008.2 |
| 20260506033233 | 50 | 345 | 3.5 | 12.2 | 0.00 | 0.04 | 0.00 | 87 | 1008.3 |
| 20260506032247 | 50 | 320 | 6.1 | 10.4 | 0.00 | 0.04 | 0.00 | 87 | 1008.2 |
| 20260506031230 | 50 | 360 | 5.2 | 10.4 | 0.00 | 0.04 | 0.00 | 87 | 1008.3 |
| 20260506030241 | 50 | 11 | 3.5 | 9.6 | 0.00 | 0.04 | 0.00 | 86 | 1008.4 |
| 20260506025242 | 50 | 345 | 5.2 | 7.8 | 0.00 | 0.08 | 0.00 | 86 | 1008.4 |
| 20260506024243 | 50 | 16 | 4.3 | 9.6 | 0.00 | 0.08 | 0.00 | 86 | 1008.4 |
| 20260506023249 | 50 | 340 | 2.6 | 7.8 | 0.00 | 0.08 | 0.00 | 86 | 1008.5 |
| 20260506022321 | 50 | 325 | 2.6 | 7.0 | 0.00 | 0.08 | 0.00 | 85 | 1008.5 |
| 20260506021251 | 50 | 12 | 3.5 | 7.0 | 0.00 | 0.08 | 0.00 | 85 | 1008.5 |
| 20260506020231 | 51 | 24 | 3.5 | 9.6 | 0.00 | 0.08 | 0.00 | 85 | 1008.5 |
| 20260506015232 | 51 | 11 | 4.3 | 12.2 | 0.00 | 0.08 | 0.00 | 85 | 1008.5 |
| 20260506014233 | 51 | 346 | 3.5 | 7.8 | 0.00 | 0.08 | 0.00 | 85 | 1008.6 |
| 20260506013303 | 51 | 336 | 3.5 | 10.4 | 0.00 | 0.08 | 0.00 | 85 | 1008.6 |
| 20260506012254 | 51 | 12 | 4.3 | 10.4 | 0.00 | 0.08 | 0.00 | 85 | 1008.7 |
| 20260506011246 | 51 | 5 | 4.3 | 12.2 | 0.00 | 0.08 | 0.00 | 85 | 1008.7 |
| 20260506010243 | 51 | 30 | 2.6 | 9.6 | 0.00 | 0.08 | 0.00 | 85 | 1008.6 |
| 20260506005250 | 51 | 360 | 3.5 | 8.7 | 0.00 | 0.08 | 0.00 | 84 | 1008.7 |
| 20260506004249 | 51 | 346 | 6.1 | 11.3 | 0.00 | 0.08 | 0.00 | 84 | 1008.8 |
| 20260506003228 | 51 | 346 | 3.5 | 9.6 | 0.00 | 0.08 | 0.00 | 84 | 1009.0 |
| 20260506002307 | 51 | 5 | 2.6 | 8.7 | 0.00 | 0.08 | 0.00 | 85 | 1009.0 |
| 20260506001229 | 51 | 11 | 4.3 | 10.4 | 0.00 | 0.08 | 0.00 | 85 | 1009.0 |
| 20260506000229 | 51 | 340 | 3.5 | 11.3 | 0.00 | 0.08 | 0.00 | 85 | 1009.1 |
| 20260505235230 | 51 | 360 | 4.3 | 10.4 | 0.00 | 0.08 | 0.00 | 85 | 1009.1 |
| 20260505234240 | 51 | 345 | 5.2 | 10.4 | 0.00 | 0.08 | 0.00 | 86 | 1009.2 |
| 20260505233241 | 51 | 11 | 3.5 | 9.6 | 0.00 | 0.08 | 0.00 | 86 | 1009.1 |
| 20260505232305 | 51 | 31 | 5.2 | 12.2 | 0.00 | 0.08 | 0.00 | 86 | 1009.2 |
| 20260505231240 | 51 | 14 | 5.2 | 9.6 | 0.00 | 0.08 | 0.00 | 86 | 1009.3 |
| 20260505230236 | 51 | 11 | 3.5 | 8.7 | 0.00 | 0.08 | 0.00 | 87 | 1009.3 |
| 20260505225244 | 51 | 9 | 3.5 | 9.6 | 0.00 | 0.12 | 0.00 | 87 | 1009.4 |
| 20260505224246 | 52 | 26 | 4.3 | 9.6 | 0.00 | 0.12 | 0.00 | 87 | 1009.4 |
| 20260505223240 | 52 | 30 | 5.2 | 10.4 | 0.00 | 0.12 | 0.00 | 87 | 1009.6 |
| 20260505222318 | 52 | 38 | 4.3 | 9.6 | 0.00 | 0.12 | 0.00 | 87 | 1009.6 |
| 20260505221239 | 52 | 32 | 6.1 | 10.4 | 0.00 | 0.12 | 0.00 | 87 | 1009.6 |
| 20260505220251 | 52 | 17 | 4.3 | 10.4 | 0.00 | 0.12 | 0.00 | 87 | 1009.6 |
| 20260505215226 | 52 | 39 | 6.1 | 9.6 | 0.00 | 2.87 | 0.07 | 87 | 1009.6 |
| 20260505214227 | 52 | 27 | 4.3 | 11.3 | 0.00 | 2.87 | 0.07 | 87 | 1009.6 |
| 20260505213229 | 53 | 9 | 6.1 | 10.4 | 0.00 | 2.87 | 0.07 | 87 | 1009.7 |
| 20260505212250 | 53 | 34 | 5.2 | 10.4 | 0.00 | 2.87 | 0.07 | 87 | 1009.6 |
| 20260505211302 | 53 | 37 | 4.3 | 9.6 | 0.00 | 2.87 | 0.07 | 87 | 1009.6 |
| 20260505210240 | 53 | 19 | 5.2 | 9.6 | 0.00 | 2.87 | 0.07 | 88 | 1009.5 |
| 20260505205241 | 53 | 10 | 4.3 | 9.6 | 0.00 | 5.59 | 0.07 | 89 | 1009.7 |
| 20260505204311 | 53 | 360 | 5.2 | 9.6 | 0.00 | 5.59 | 0.07 | 91 | 1009.7 |
| 20260505203226 | 53 | 346 | 3.5 | 11.3 | 0.00 | 5.59 | 0.07 | 93 | 1009.5 |
| 20260505202306 | 53 | 26 | 2.6 | 4.3 | 0.00 | 5.59 | 0.07 | 93 | 1009.5 |
| 20260505201227 | 53 | 24 | 0.9 | 2.6 | 0.00 | 5.59 | 0.07 | 93 | 1009.4 |
| 20260505200225 | 53 | 5 | 0.9 | 1.7 | 0.00 | 5.59 | 0.07 | 93 | 1009.5 |